RH
54 64 67 83 74 69 64 41 23 18 51 56 81 100 86 80 73 75 89 93 77 61 42 38 38 52 66 78 82 77 68 68 69
78 75 78 86 66 59 65 47 30 19 31 53 91 97 99 93 90 91 96 100 95 84 71 69 61 55 54 65 77 92 87 94 94
82 81 73 88 79 67 65 50 30 21 24 26 68 85 90 72 80 84 93 100 100 100 97 86 78 69 67 72 81 78 84 99 89
73 90 87 85 72 62 69 49 28 24 29 42 26 54 68 75 76 79 100 100 100 100 100 100 100 100 100 100 100 100 100 94 86
68 83 84 88 74 72 81 47 27 21 26 52 63 30 55 81 75 82 94 100 100 100 100 98 100 100 100 96 95 92 92 90 83
78 69 84 84 83 95 74 46 32 26 21 28 65 65 41 57 70 68 88 98 100 100 99 93 93 98 90 90 83 74 73 84 78
63 63 64 81 98 92 79 65 32 34 28 23 31 77 63 58 58 66 63 68 89 97 100 97 88 89 98 90 82 65 53 54 58
91 64 71 79 88 99 96 68 46 38 27 25 31 39 62 80 79 63 68 70 88 100 93 100 100 93 78 88 79 75 54 51 53
93 59 62 60 70 89 76 77 62 50 29 28 32 27 47 63 85 81 76 79 86 100 100 100 100 98 98 90 66 70 82 98 86
90 85 64 51 75 95 95 84 74 57 32 28 29 27 35 56 85 91 84 93 100 100 100 100 100 93 86 98 88 79 88 87 82
91 65 76 61 67 88 100 100 80 64 45 30 34 31 27 35 56 75 79 100 100 100 100 100 100 100 100 100 100 100 100 98 100
97 78 71 70 81 89 100 100 92 77 54 39 34 37 29 29 51 62 70 78 100 100 100 100 100 100 100 100 98 100 95 99 100
87 72 76 59 79 85 100 100 99 81 67 41 36 43 35 31 30 53 69 90 96 92 100 100 100 100 100 100 100 100 100 98 94
80 74 63 51 67 69 97 100 92 100 80 48 31 45 44 42 35 34 68 80 83 95 95 91 100 100 100 100 100 100 100 100 100
58 66 70 86 62 80 94 100 100 100 90 68 35 36 59 62 55 32 36 84 92 98 97 97 85 85 100 100 100 100 100 100 100
55 58 70 62 72 80 97 100 100 100 100 85 41 51 88 96 58 35 31 30 85 99 97 98 86 87 78 89 99 100 100 100 100
68 68 72 69 80 90 83 100 100 99 100 100 73 44 50 56 86 60 38 32 29 48 94 100 100 100 100 100 99 100 100 100 100
72 84 82 99 94 100 80 85 100 100 100 100 99 70 68 97 76 95 43 39 34 29 33 38 51 96 100 100 100 100 50 42 60
98 98 100 100 100 99 91 90 87 100 100 100 100 98 71 96 100 74 84 52 41 39 27 27 28 27 33 46 50 31 28 37 45
100 100 98 96 99 100 100 98 91 99 100 100 94 75 98 84 100 89 80 79 56 49 52 38 30 29 28 27 28 33 51 61 83
Wind_Speed
46 45 43 43 46 45 51 51 53 26 32 45 56 48 53 57 58 56 52 52 56 60 60 61 58 54 51 52 51 49 50 50 49
47 49 45 43 45 45 48 47 51 31 34 45 45 52 55 57 55 54 51 53 53 52 56 59 59 60 56 54 52 50 49 47 46
45 47 44 43 45 45 45 45 46 41 33 42 53 53 55 60 58 57 52 47 50 54 54 56 59 60 58 57 55 56 55 52 51
43 44 43 44 46 44 46 44 41 31 33 34 50 57 57 58 60 59 52 53 51 53 53 54 51 53 55 57 58 56 56 59 54
47 42 44 42 49 45 43 42 45 31 32 33 41 55 57 55 56 56 53 48 49 52 54 54 54 57 61 61 63 62 58 57 58
51 49 47 48 48 46 44 48 39 41 36 30 39 44 53 60 56 55 55 50 52 53 54 56 56 57 61 63 65 65 65 64 63
55 53 53 49 48 48 50 49 46 42 38 40 34 40 44 48 56 56 56 55 54 52 54 57 59 59 59 63 65 66 64 65 65
66 61 60 56 53 54 49 51 49 46 40 44 34 35 38 40 45 52 55 53 50 48 53 54 55 60 62 63 62 62 64 65 65
68 64 65 66 61 58 52 52 51 48 46 43 35 33 37 39 42 45 48 49 49 50 52 54 58 59 61 62 61 60 57 55 53
72 71 67 69 63 55 54 50 49 45 43 48 38 34 35 38 39 43 43 45 45 47 51 52 54 57 56 55 55 53 55 56 55
71 70 72 69 66 56 57 51 48 50 44 48 46 39 36 37 41 43 45 44 44 46 51 53 57 57 55 54 55 54 53 53 53
75 77 70 67 70 63 58 56 52 50 42 43 49 42 41 40 42 46 47 48 46 48 50 52 55 56 52 55 56 53 54 55 57
79 76 73 70 70 70 58 60 53 52 45 41 49 44 43 43 45 47 50 49 50 47 48 53 52 50 51 52 53 54 55 56 57
82 77 72 71 71 69 59 61 53 55 49 45 50 47 44 42 45 50 53 58 59 57 54 52 54 54 54 58 60 60 59 61 59
75 73 74 78 75 69 58 61 60 59 53 50 52 51 46 46 47 46 54 61 63 62 64 61 61 62 61 62 63 63 62 63 65
68 73 74 72 74 71 60 62 61 60 58 55 51 52 50 49 47 45 49 58 67 70 69 70 69 70 70 69 71 69 70 71 72
79 76 77 76 74 76 67 63 62 61 65 59 56 54 50 49 49 49 45 52 61 68 73 77 78 76 76 75 76 76 79 77 75
81 76 77 74 70 72 69 66 63 65 64 65 59 54 54 57 52 53 49 45 51 62 69 73 76 80 83 84 83 86 82 78 77
76 74 72 71 71 75 73 71 64 66 68 65 63 60 59 55 59 52 55 51 50 51 56 61 67 71 75 77 78 79 77 76 76
79 76 78 74 73 77 74 71 67 65 68 68 67 67 65 64 58 59 55 57 54 52 52 52 56 60 63 67 70 73 73 71 70
Wind_Direction
297 300 307 305 307 309 310 316 328 283 258 248 238 237 240 242 245 247 247 252 255 255 255 256 255 255 255 257 257 256 260 261 263
303 301 300 302 305 310 311 319 327 316 269 242 233 234 237 238 241 244 243 247 252 255 255 254 254 254 255 256 256 255 257 257 257
304 305 302 298 301 307 309 318 320 320 305 257 241 240 241 240 239 243 242 248 253 252 254 255 255 255 257 256 256 258 258 258 261
299 301 301 298 303 305 309 314 318 321 313 282 256 243 245 243 242 239 245 249 253 254 255 254 254 255 257 256 256 259 259 257 261
298 299 301 296 300 302 303 311 319 313 324 280 262 253 243 244 244 241 241 244 251 252 254 253 254 256 258 259 258 257 261 260 260
293 296 299 300 299 296 302 307 310 312 314 307 263 259 249 244 245 244 242 244 249 253 253 256 258 258 260 261 264 263 263 262 268
291 296 295 298 294 291 299 304 311 315 301 310 281 260 257 251 246 245 245 247 252 256 257 258 258 256 257 260 263 264 266 267 267
289 290 292 296 294 289 293 301 304 311 308 309 294 259 262 262 254 245 242 241 247 253 261 257 256 259 258 259 262 267 269 270 270
284 288 290 291 292 287 290 295 299 302 306 307 293 271 257 262 262 256 244 240 243 246 246 257 259 259 261 264 265 265 267 270 270
284 283 284 289 290 281 284 290 296 296 299 305 295 278 261 256 262 260 251 241 242 244 248 253 258 260 262 265 266 265 265 265 265
281 284 283 283 286 279 279 284 289 290 292 298 296 286 277 262 254 260 259 248 246 248 248 247 250 256 262 264 267 269 270 268 268
279 279 279 280 280 280 274 277 284 283 286 291 294 282 281 273 260 255 259 251 245 245 245 247 249 249 256 261 265 266 266 267 262
278 278 277 277 278 277 272 274 279 280 280 286 288 275 277 277 268 256 256 248 247 253 247 246 249 250 251 256 261 260 265 266 267
276 273 274 276 277 277 267 268 275 272 274 282 289 268 271 277 276 265 255 252 253 252 251 253 252 251 253 253 259 261 263 260 262
268 269 271 273 274 273 264 265 272 273 270 275 284 270 267 272 276 272 261 253 253 254 255 254 257 256 255 258 258 259 265 267 266
267 266 269 271 271 269 261 264 267 269 269 273 281 270 270 267 271 276 268 259 254 254 256 258 259 259 262 260 260 261 262 266 269
270 269 269 270 267 264 259 260 265 267 265 270 276 274 270 270 267 273 273 267 258 256 256 258 259 259 260 259 261 264 266 265 264
267 266 266 265 262 259 257 254 259 264 264 267 273 264 268 274 272 269 271 272 265 258 257 258 257 257 258 259 261 264 266 265 262
262 262 259 258 259 262 260 253 257 261 261 264 267 268 267 274 270 268 267 271 270 266 260 258 258 258 258 259 260 261 262 262 261
262 258 261 260 260 260 258 256 260 259 262 261 263 269 270 268 271 269 269 268 267 268 269 267 265 264 263 263 262 261 261 260 259